Washington, NC

2:44 AM EST on February 22, 2018 (GMT -0500)
Warren

Weather History for KOCW - April, 2014

Change the Weather History Date:

Friday, April 18, 2014

  Actual Average (KPGV) Record (KPGV)
Temperature  
Mean Temperature 52 °F -  
Max Temperature 64 °F 72 °F 93 °F (2002)
Min Temperature 40 °F 48 °F 33 °F (1983)
Degree Days  
Heating Degree Days 13    
Growing Degree Days 2 (Base 50)    
Moisture  
Dew Point 43 °F    
Average Humidity 75    
Maximum Humidity 86    
Minimum Humidity 49    
Precipitation  
Precipitation 0.03 in - - ()
Sea Level Pressure  
Sea Level Pressure 30.36 in    
Wind  
Wind Speed 7 mph (NNE)    
Max Wind Speed 13 mph    
Max Gust Speed 17 mph    
Visibility 10 miles    
Events      
Averages and records for this station are not official NWS values.
T = Trace of Precipitation, MM = Missing Value Source: NWS Daily Summary

Daily Weather History Graph

Daily Weather History Graph

Search for Another Location

Airport or City:

Trip Planner

Search our weather history database for the weather conditions in past years. The results will help you decide how hot, cold, wet, or windy it might be!

Date:

Astronomy

Apr. 18, 2014 Rise Set
Actual Time 6:31 AM EDT 7:43 PM EDT
Civil Twilight 6:05 AM EDT 8:10 PM EDT
Nautical Twilight 5:33 AM EDT 8:41 PM EDT
Astronomical Twilight 5:01 AM EDT 9:14 PM EDT
Moon 11:22 PM EDT (4/18) 8:56 AM EDT (4/18)
Length of Visible Light 14h 04m
Length of Day
13h 12m
Waning Gibbous, 87% of the Moon is Illuminated
Apr 18
Waning Gibbous
Apr 22
Last Quarter
Apr 29
New
May 6
First Quarter
May 14
Full

Hourly Weather History & Observations

Time (EDT) Temp. Windchill Dew Point Humidity Pressure Visibility Wind Dir Wind Speed Gust Speed Precip Events Conditions
12:15 AM 42.8 °F 38.0 °F 38.7 °F 85% 30.48 in 10.0 mi NNE 8.1 mph - N/A   Clear
12:35 AM 42.8 °F 39.3 °F 38.5 °F 85% 30.48 in 10.0 mi NNE 5.8 mph - N/A   Clear
12:55 AM 42.8 °F 38.6 °F 38.5 °F 85% 30.47 in 10.0 mi NNE 6.9 mph - N/A   Clear
1:15 AM 42.8 °F 40.1 °F 38.3 °F 84% 30.46 in 10.0 mi NE 4.6 mph - N/A   Clear
1:35 AM 42.8 °F 40.1 °F 38.3 °F 84% 30.46 in 10.0 mi NNE 4.6 mph - N/A   Scattered Clouds
1:55 AM 42.8 °F 39.3 °F 38.3 °F 84% 30.45 in 10.0 mi NNE 5.8 mph - N/A   Scattered Clouds
2:15 AM 42.8 °F 37.5 °F 38.3 °F 84% 30.43 in 10.0 mi NNE 9.2 mph - N/A   Mostly Cloudy
2:35 AM 42.8 °F 38.6 °F 38.3 °F 84% 30.43 in 10.0 mi NNE 6.9 mph - N/A   Scattered Clouds
2:55 AM 42.8 °F 37.5 °F 38.5 °F 85% 30.42 in 10.0 mi NNE 9.2 mph - N/A   Mostly Cloudy
3:15 AM 42.8 °F 37.5 °F 38.3 °F 84% 30.42 in 10.0 mi NNE 9.2 mph - N/A   Overcast
3:35 AM 42.8 °F 37.0 °F 38.3 °F 84% 30.41 in 10.0 mi NNE 10.4 mph - N/A   Mostly Cloudy
3:55 AM 42.8 °F 38.0 °F 38.3 °F 84% 30.41 in 10.0 mi NNE 8.1 mph - N/A   Scattered Clouds
4:15 AM 42.8 °F 40.1 °F 38.3 °F 84% 30.41 in 10.0 mi NNE 4.6 mph - N/A   Clear
4:35 AM 40.5 °F 38.4 °F 36.5 °F 86% 30.41 in 10.0 mi North 3.5 mph - N/A   Clear
4:55 AM 40.1 °F - 36.0 °F 85% 30.41 in 10.0 mi Calm Calm - N/A   Clear
5:15 AM 40.1 °F - 36.0 °F 85% 30.41 in 10.0 mi Calm Calm - N/A   Clear
5:35 AM 40.1 °F - 36.1 °F 86% 30.41 in 10.0 mi Calm Calm - N/A   Clear
5:55 AM 40.1 °F 36.1 °F 36.1 °F 86% 30.41 in 10.0 mi North 5.8 mph - N/A   Clear
6:15 AM 40.1 °F 36.1 °F 36.1 °F 86% 30.40 in 10.0 mi North 5.8 mph - N/A   Clear
6:35 AM 40.5 °F 35.8 °F 36.5 °F 86% 30.41 in 10.0 mi NNE 6.9 mph - N/A   Scattered Clouds
6:55 AM 42.4 °F 38.1 °F 38.1 °F 85% 30.40 in 10.0 mi NNE 6.9 mph - N/A   Overcast
7:15 AM 42.8 °F 38.0 °F 38.5 °F 85% 30.42 in 7.0 mi NNE 8.1 mph - N/A   Overcast
7:35 AM 42.8 °F 38.0 °F 38.3 °F 84% 30.42 in 7.0 mi NNE 8.1 mph - N/A   Overcast
7:55 AM 42.8 °F 38.0 °F 38.3 °F 84% 30.42 in 7.0 mi North 8.1 mph - N/A   Overcast
8:15 AM 42.8 °F 38.6 °F 38.5 °F 85% 30.42 in 7.0 mi NNE 6.9 mph - N/A   Overcast
8:35 AM 43.9 °F 39.3 °F 39.6 °F 85% 30.42 in 7.0 mi North 8.1 mph - N/A   Overcast
8:55 AM 43.9 °F 38.8 °F 39.7 °F 85% 30.42 in 10.0 mi North 9.2 mph - N/A   Overcast
9:15 AM 44.2 °F 38.8 °F 40.1 °F 85% 30.42 in 10.0 mi NE 10.4 mph - N/A   Overcast
9:35 AM 45.3 °F 41.1 °F 41.0 °F 85% 30.42 in 10.0 mi NNE 8.1 mph - N/A   Overcast
9:55 AM 46.4 °F 41.9 °F 41.9 °F 84% 30.42 in 10.0 mi NNE 9.2 mph - N/A   Overcast
10:15 AM 49.1 °F - 43.7 °F 82% 30.41 in 10.0 mi ENE 9.2 mph - N/A   Mostly Cloudy
10:35 AM 51.8 °F - 45.9 °F 80% 30.41 in 10.0 mi North 10.4 mph - N/A   Clear
10:55 AM 52.7 °F - 45.3 °F 76% 30.41 in 10.0 mi North 5.8 mph - N/A   Clear
11:15 AM 52.7 °F - 45.0 °F 75% 30.41 in 10.0 mi NNE 9.2 mph - N/A   Clear
11:35 AM 54.3 °F - 45.1 °F 71% 30.41 in 10.0 mi NE 5.8 mph - N/A   Clear
11:55 AM 55.4 °F - 45.7 °F 70% 30.39 in 10.0 mi North 9.2 mph - N/A   Clear
12:15 PM 58.1 °F - 47.7 °F 68% 30.39 in 10.0 mi NNE 9.2 mph - N/A   Clear
12:35 PM 58.1 °F - 46.8 °F 66% 30.39 in 10.0 mi NNE 9.2 mph - N/A   Clear
12:55 PM 58.5 °F - 45.3 °F 62% 30.38 in 10.0 mi NNE 10.4 mph - N/A   Clear
1:15 PM 58.3 °F - 45.3 °F 62% 30.38 in 10.0 mi North 8.1 mph - N/A   Clear
1:35 PM 60.4 °F - 46.2 °F 59% 30.38 in 10.0 mi North 6.9 mph - N/A   Scattered Clouds
1:55 PM 60.4 °F - 46.2 °F 59% 30.36 in 10.0 mi NNE 10.4 mph 17.3 mph N/A   Scattered Clouds
2:15 PM 62.1 °F - 45.9 °F 55% 30.35 in 10.0 mi North 11.5 mph - N/A   Scattered Clouds
2:35 PM 63.0 °F - 45.5 °F 53% 30.34 in 10.0 mi North 11.5 mph - N/A   Scattered Clouds
2:55 PM 63.3 °F - 45.1 °F 52% 30.33 in 10.0 mi NNE 9.2 mph 17.3 mph N/A   Scattered Clouds
3:20 PM 63.9 °F - 45.3 °F 51% 30.32 in 10.0 mi North 11.5 mph - N/A   Scattered Clouds
3:35 PM 64.0 °F - 45.0 °F 50% 30.31 in 10.0 mi NE 5.8 mph - N/A   Clear
3:55 PM 64.9 °F - 45.7 °F 50% 30.30 in 10.0 mi ENE 8.1 mph - N/A   Scattered Clouds
4:15 PM 64.4 °F - 45.0 °F 49% 30.29 in 10.0 mi ENE 10.4 mph - N/A   Clear
4:35 PM 63.0 °F - 44.8 °F 51% 30.28 in 10.0 mi East 10.4 mph - N/A   Clear
4:55 PM 64.2 °F - 45.7 °F 51% 30.27 in 10.0 mi NE 9.2 mph - N/A   Clear
5:15 PM 63.0 °F - 46.2 °F 54% 30.27 in 10.0 mi NE 6.9 mph - N/A   Clear
5:35 PM 61.7 °F - 46.8 °F 58% 30.27 in 10.0 mi ENE 9.2 mph - N/A   Scattered Clouds
5:55 PM 60.4 °F - 48.6 °F 65% 30.26 in 10.0 mi East 9.2 mph - N/A   Scattered Clouds
6:15 PM 58.5 °F - 47.8 °F 68% 30.27 in 10.0 mi ENE 8.1 mph - N/A   Scattered Clouds
6:35 PM 58.1 °F - 48.2 °F 70% 30.27 in 10.0 mi ENE 8.1 mph - N/A   Mostly Cloudy
6:55 PM 58.1 °F - 48.6 °F 71% 30.28 in 10.0 mi NE 6.9 mph - N/A   Overcast
7:15 PM 58.1 °F - 49.1 °F 72% 30.29 in 10.0 mi NNE 9.2 mph - N/A   Overcast
7:35 PM 55.4 °F - 47.3 °F 74% 30.28 in 10.0 mi NE 6.9 mph - N/A   Overcast
7:55 PM 54.0 °F - 46.4 °F 76% 30.27 in 10.0 mi ENE 6.9 mph - N/A   Overcast
8:15 PM 52.7 °F - 45.9 °F 78% 30.27 in 10.0 mi ENE 10.4 mph - N/A   Scattered Clouds
8:35 PM 52.7 °F - 46.4 °F 79% 30.26 in 10.0 mi ENE 9.2 mph - N/A   Mostly Cloudy
8:55 PM 52.7 °F - 46.4 °F 79% 30.26 in 10.0 mi NE 12.7 mph 17.3 mph N/A   Mostly Cloudy
9:15 PM 52.7 °F - 46.6 °F 80% 30.27 in 10.0 mi NE 6.9 mph - N/A   Mostly Cloudy
9:35 PM 52.7 °F - 46.8 °F 80% 30.28 in 10.0 mi ENE 8.1 mph - N/A   Scattered Clouds
9:55 PM 52.7 °F - 46.4 °F 79% 30.27 in 10.0 mi NE 4.6 mph - N/A   Mostly Cloudy
10:15 PM 52.7 °F - 46.4 °F 79% 30.29 in 10.0 mi East 9.2 mph - N/A   Scattered Clouds
10:35 PM 52.7 °F - 46.8 °F 80% 30.31 in 10.0 mi Calm Calm - N/A   Overcast
10:55 PM 50.2 °F - 45.1 °F 83% 30.29 in 10.0 mi ENE 6.9 mph - N/A   Overcast
11:15 PM 50.2 °F - 45.9 °F 85% 30.29 in 10.0 mi NE 4.6 mph - N/A   Overcast
11:35 PM 47.8 °F - 43.7 °F 86% 30.27 in 10.0 mi NE 8.1 mph - 0.01 in   Overcast
11:55 PM 47.7 °F - 43.3 °F 85% 30.26 in 10.0 mi NE 6.9 mph - 0.03 in   Mostly Cloudy